This demonstration page uses our WeatherBlox Daily Observations layout. Learn more.

Left ArrowRight Arrow

34.74481, -87.66753

Hourly Observations for August 19, 2022

Temp ( °F °C ) Dew Point ( °F °C ) Humidity (%) Winds ( mph kmh ) Pressure ( in mb ) Visibility ( mi km ) Precip ( " mm )
12:53 am 00:53 Mostly Cloudy 69 20.6 65 18.3 87 87 Calm 29.93 1014 10 16 0.00 0.00
1:53 am 01:53 Mostly Cloudy 69 20.6 65 18.3 87 87 Calm 29.93 1014 10 16 0.00 0.00
2:53 am 02:53 Partly Cloudy 69 20.6 65 18.3 87 87 Calm 29.93 1014 10 16 0.00 0.00
3:53 am 03:53 Partly Cloudy 67 19.4 64 17.8 90 90 Calm 29.93 1013 9 14 0.00 0.00
4:53 am 04:53 Mostly Cloudy 67 19.4 64 17.8 90 90 E 3 6 29.93 1014 10 16 0.00 0.00
5:53 am 05:53 Partly Cloudy 67 19.4 64 17.8 90 90 Calm 29.93 1014 9 14 0.00 0.00
6:53 am 06:53 Cloudy 70 21.1 66 18.9 87 87 E 3 6 29.94 1014 10 16 0.00 0.00
7:53 am 07:53 Mostly Cloudy 73 22.8 68 20 84 84 SE 5 7 29.97 1015 10 16 0.00 0.00
8:53 am 08:53 Cloudy 75 23.9 69 20.6 82 82 VRB 3 6 29.98 1015 10 16 0.00 0.00
9:53 am 09:53 Cloudy 78 25.6 70 21.1 76 76 ESE 3 6 29.98 1015 10 16 0.00 0.00
10:53 am 10:53 Cloudy 83 28.3 71 21.7 67 67 VRB 6 9 29.98 1015 10 16 0.00 0.00
11:53 am 11:53 Mostly Cloudy 84 28.9 70 21.1 63 63 Calm 29.97 1015 10 16 0.00 0.00
12:53 pm 12:53 Partly Cloudy 87 30.6 68 20 53 53 SSE 7 11 29.95 1014 10 16 0.00 0.00
1:53 pm 13:53 Sunny 90 32.2 67 19.4 47 47 SSE 8 13 29.93 1013 10 16 0.00 0.00
2:53 pm 14:53 Partly Cloudy 90 32.2 63 17.2 41 41 Calm 29.92 1013 10 16 0.00 0.00
3:53 pm 15:53 Mostly Cloudy 90 32.2 68 20 49 49 S 7 11 29.91 1013 10 16 0.00 0.00
4:53 pm 16:53 Mostly Sunny 88 31.1 66 18.9 48 48 SSW 6 9 29.92 1013 10 16 0.00 0.00
5:53 pm 17:53 Sunny 88 31.1 66 18.9 48 48 SSW 3 6 29.92 1013 10 16 0.00 0.00
6:53 pm 18:53 Sunny 87 30.6 64 17.8 46 46 SSW 5 7 29.92 1013 10 16 0.00 0.00
7:53 pm 19:53 Clear 80 26.7 67 19.4 64 64 SSE 5 7 29.93 1014 10 16 0.00 0.00
8:53 pm 20:53 Mostly Cloudy 79 26.1 68 20 69 69 ESE 5 7 29.96 1014 10 16 0.00 0.00
9:53 pm 21:53 Partly Cloudy 76 24.4 69 20.6 79 79 ESE 6 9 29.97 1015 10 16 0.00 0.00
10:53 pm 22:53 Clear 74 23.3 69 20.6 85 85 Calm 29.99 1016 10 16 0.00 0.00
11:53 pm 23:53 Mostly Clear 73 22.8 70 21.1 90 90 E 3 6 30.00 1016 10 16 0.00 0.00

Powered by AerisWeather